Погода в Меседе

Россия / Челябинская область     54°46′16″N   58°41′50″E
темп.,
°C
ветер,
м/с
пор.,
м/с
влажн.,
%
обл.,
%
осадки,
мм/ч
давл.,
гПа
погр.,
м
11 мая, вт
вт1123:00+10юв23630 0.0 102540
02:00+8юв22650 0.0 102517
05:00+7юв21682 0.0 102611
08:00+12юв12495 0.0 1026244
11:00+18юв11324 0.0 10261347
14:00+21ююз1125100 0.0 10262070
17:00+21сз1125100 0.0 10262339
20:00+15с1149100 0.0 102711
12 мая, ср
ср1223:00+12ююв1155100 0.0 102810
02:00+10ююв115657 0.0 102910
05:00+9ю11575 0.0 103010
08:00+15зюз00440 0.0 1030164
11:00+21ссз11295 0.0 10291468
14:00+23сз11225 0.0 10282168
17:00+23сз21210 0.0 10272411
20:00+17с22503 0.0 102818
13 мая, чт
чт1323:00+13юв11622 0.0 102910
02:00+12юв11675 0.0 102910
05:00+11юв116918 0.0 102910
08:00+17зсз00545 0.0 1029174
11:00+22ссз224014 0.0 10281502
14:00+23ссз223494 0.0 10271989
17:00+23ссз323525 0.0 10272026
20:00+19ссв115558 0.0 102712
14 мая, пт
пт1423:00+14вюв116494 0.0 102811
02:00+13юв116517 0.0 102811
05:00+12ююв11680 0.0 102910
08:00+19ю11500 0.0 1028160
11:00+24зсз12331 0.0 10271878
14:00+25сз332722 0.0 10262823
17:00+24сз5433100 0.0 10261432
20:00+19сз2254100 0.0 102628
15 мая, сб
сб1523:00+15юз1165100 0.0 102710
02:00+14ю116838 0.0 102611
05:00+13ю116622 0.0 102711
08:00+19юз12475 0.0 1026185
11:00+23зсз22325 0.0 10251751
14:00+25зсз33275 0.0 10232376
17:00+25сз43285 0.0 10232523
20:00+20сз22485 0.0 102325